Location: Muenchen
(48.1800°N, 11.5800°E)
Time: 14:05:00
(UTC+02:00)

Cosmos 1455 - Visible Passes

Search period start: 29 April 2016 00:00
Search period end: 09 May 2016 00:00
Orbit: 506 x 529 km, 82.5° (Epoch: 28 April)

Date Brightness Start Highest point End Pass type
(mag) Time Alt. Az. Time Alt. Az. Time Alt. Az.
29 Apr 5.6 21:32:07 10° W 21:34:13 14° WNW 21:36:20 10° NNW visible
30 Apr 5.5 21:17:13 10° WSW 21:19:43 16° WNW 21:22:12 10° NNW visible
01 May 5.4 21:02:25 10° WSW 21:05:11 19° WNW 21:08:00 10° NNW visible
